Time,TemperatureF,DewpointF,PressureIn,WindDirection,WindDirectionDegrees,WindSpeedMPH,WindSpeedGustMPH,Humidity,HourlyPrecipIn,Conditions,Clouds,dailyrainin,SolarRadiationWatts/m^2,SoftwareType,DateUTC
2013-10-05 00:02:00,44.0,11.0,-100.00,North,2,20.0,31.0,26,0.00,,,0.00,3.000000,,2013-10-05 07:02:00,
2013-10-05 00:12:00,44.0,11.0,-100.00,North,2,20.0,31.0,26,0.00,,,0.00,3.000000,,2013-10-05 07:12:00,
2013-10-05 00:42:00,44.0,12.0,-100.00,North,2,21.0,28.0,27,0.00,,,0.00,3.000000,,2013-10-05 07:42:00,
2013-10-05 00:52:00,44.0,12.0,-100.00,North,2,21.0,28.0,27,0.00,,,0.00,3.000000,,2013-10-05 07:52:00,
2013-10-05 01:02:00,44.0,12.0,-100.00,North,2,21.0,28.0,27,0.00,,,0.00,3.000000,,2013-10-05 08:02:00,
2013-10-05 01:12:00,44.0,12.0,-100.00,North,2,21.0,28.0,27,0.00,,,0.00,3.000000,,2013-10-05 08:12:00,
2013-10-05 01:42:00,44.0,12.0,-100.00,North,2,18.0,29.0,27,0.00,,,0.00,3.000000,,2013-10-05 08:42:00,
2013-10-05 01:52:00,44.0,12.0,-100.00,North,2,18.0,29.0,27,0.00,,,0.00,3.000000,,2013-10-05 08:52:00,
2013-10-05 02:02:00,44.0,12.0,-100.00,North,2,18.0,29.0,27,0.00,,,0.00,3.000000,,2013-10-05 09:02:00,
2013-10-05 02:11:00,44.0,12.0,-100.00,North,2,18.0,29.0,27,0.00,,,0.00,3.000000,,2013-10-05 09:11:00,
2013-10-05 02:43:00,45.0,11.0,-100.00,North,2,17.0,31.0,25,0.00,,,0.00,3.000000,,2013-10-05 09:43:00,
2013-10-05 02:54:00,45.0,11.0,-100.00,North,2,17.0,31.0,25,0.00,,,0.00,3.000000,,2013-10-05 09:54:00,
2013-10-05 03:03:00,45.0,11.0,-100.00,North,2,17.0,31.0,25,0.00,,,0.00,3.000000,,2013-10-05 10:03:00,
2013-10-05 03:12:00,45.0,11.0,-100.00,North,2,17.0,31.0,25,0.00,,,0.00,3.000000,,2013-10-05 10:12:00,
2013-10-05 03:43:00,45.0,9.0,-100.00,North,2,17.0,31.0,23,0.00,,,0.00,3.000000,,2013-10-05 10:43:00,
2013-10-05 03:53:00,45.0,9.0,-100.00,North,2,17.0,31.0,23,0.00,,,0.00,3.000000,,2013-10-05 10:53:00,
2013-10-05 04:02:00,45.0,9.0,-100.00,North,2,17.0,31.0,23,0.00,,,0.00,3.000000,,2013-10-05 11:02:00,
2013-10-05 04:11:00,45.0,9.0,-100.00,North,2,17.0,31.0,23,0.00,,,0.00,3.000000,,2013-10-05 11:11:00,
2013-10-05 04:43:00,44.0,10.0,-100.00,North,2,19.0,26.0,25,0.00,,,0.00,3.000000,,2013-10-05 11:43:00,
2013-10-05 04:52:00,44.0,10.0,-100.00,North,2,19.0,26.0,25,0.00,,,0.00,3.000000,,2013-10-05 11:52:00,
2013-10-05 05:01:00,44.0,10.0,-100.00,North,2,19.0,26.0,25,0.00,,,0.00,3.000000,,2013-10-05 12:01:00,
2013-10-05 05:12:00,44.0,10.0,-100.00,North,2,19.0,26.0,25,0.00,,,0.00,3.000000,,2013-10-05 12:12:00,
2013-10-05 05:42:00,44.0,11.0,-100.00,North,2,15.0,30.0,26,0.00,,,0.00,3.000000,,2013-10-05 12:42:00,
2013-10-05 05:53:00,44.0,11.0,-100.00,North,2,15.0,30.0,26,0.00,,,0.00,3.000000,,2013-10-05 12:53:00,
2013-10-05 06:02:00,44.0,11.0,-100.00,North,2,15.0,30.0,26,0.00,,,0.00,3.000000,,2013-10-05 13:02:00,
2013-10-05 06:12:00,44.0,11.0,-100.00,North,2,15.0,30.0,26,0.00,,,0.00,3.000000,,2013-10-05 13:12:00,
2013-10-05 06:42:00,43.0,11.0,-100.00,North,2,15.0,27.0,27,0.00,,,0.00,3.000000,,2013-10-05 13:42:00,
2013-10-05 06:52:00,43.0,11.0,-100.00,North,2,15.0,27.0,27,0.00,,,0.00,3.000000,,2013-10-05 13:52:00,
2013-10-05 07:02:00,43.0,11.0,-100.00,North,2,15.0,27.0,27,0.00,,,0.00,3.000000,,2013-10-05 14:02:00,
2013-10-05 07:11:00,43.0,11.0,-100.00,North,2,15.0,27.0,27,0.00,,,0.00,3.000000,,2013-10-05 14:11:00,
2013-10-05 07:42:00,43.0,12.0,-100.00,North,2,19.0,30.0,28,0.00,,,0.00,10.000000,,2013-10-05 14:42:00,
2013-10-05 07:52:00,43.0,12.0,-100.00,North,2,19.0,30.0,28,0.00,,,0.00,10.000000,,2013-10-05 14:52:00,
2013-10-05 08:02:00,43.0,12.0,-100.00,North,2,19.0,30.0,28,0.00,,,0.00,10.000000,,2013-10-05 15:02:00,
2013-10-05 08:12:00,43.0,12.0,-100.00,North,2,19.0,30.0,28,0.00,,,0.00,10.000000,,2013-10-05 15:12:00,
2013-10-05 08:44:00,46.0,12.0,-100.00,North,2,17.0,26.0,25,0.00,,,-99.99,186.000000,,2013-10-05 15:44:00,
2013-10-05 08:53:00,46.0,12.0,-100.00,North,2,17.0,26.0,25,0.00,,,-99.99,186.000000,,2013-10-05 15:53:00,
2013-10-05 09:03:00,46.0,12.0,-100.00,North,2,17.0,26.0,25,0.00,,,-99.99,186.000000,,2013-10-05 16:03:00,
2013-10-05 09:13:00,46.0,12.0,-100.00,North,2,17.0,26.0,25,0.00,,,-99.99,186.000000,,2013-10-05 16:13:00,
2013-10-05 09:43:00,51.0,8.0,-100.00,North,1,16.0,26.0,17,0.00,,,0.00,446.000000,,2013-10-05 16:43:00,
2013-10-05 09:53:00,51.0,8.0,-100.00,North,1,16.0,26.0,17,0.00,,,0.00,446.000000,,2013-10-05 16:53:00,
2013-10-05 10:02:00,51.0,8.0,-100.00,North,1,16.0,26.0,17,0.00,,,0.00,446.000000,,2013-10-05 17:02:00,
2013-10-05 10:12:00,51.0,8.0,-100.00,North,1,16.0,26.0,17,0.00,,,0.00,446.000000,,2013-10-05 17:12:00,
2013-10-05 10:42:00,55.0,3.0,-100.00,North,1,15.0,24.0,12,0.00,,,0.00,675.000000,,2013-10-05 17:42:00,
2013-10-05 10:52:00,55.0,3.0,-100.00,North,1,15.0,24.0,12,0.00,,,0.00,675.000000,,2013-10-05 17:52:00,
2013-10-05 11:02:00,55.0,3.0,-100.00,North,1,15.0,24.0,12,0.00,,,0.00,675.000000,,2013-10-05 18:02:00,
2013-10-05 11:12:00,55.0,3.0,-100.00,North,1,15.0,24.0,12,0.00,,,0.00,675.000000,,2013-10-05 18:12:00,
2013-10-05 11:42:00,59.0,3.0,-100.00,North,1,16.0,29.0,10,0.00,,,0.00,846.000000,,2013-10-05 18:42:00,
2013-10-05 11:52:00,59.0,3.0,-100.00,North,1,16.0,29.0,10,0.00,,,0.00,846.000000,,2013-10-05 18:52:00,
2013-10-05 12:01:00,59.0,3.0,-100.00,North,1,16.0,29.0,10,0.00,,,0.00,846.000000,,2013-10-05 19:01:00,
2013-10-05 12:11:00,59.0,3.0,-100.00,North,1,16.0,29.0,10,0.00,,,0.00,846.000000,,2013-10-05 19:11:00,
2013-10-05 12:42:00,61.0,6.0,-100.00,North,1,12.0,27.0,11,0.00,,,0.00,947.000000,,2013-10-05 19:42:00,
2013-10-05 12:52:00,61.0,6.0,-100.00,North,1,12.0,27.0,11,0.00,,,0.00,947.000000,,2013-10-05 19:52:00,
2013-10-05 13:02:00,61.0,6.0,-100.00,North,1,12.0,27.0,11,0.00,,,0.00,947.000000,,2013-10-05 20:02:00,
2013-10-05 13:11:00,61.0,6.0,-100.00,North,1,12.0,27.0,11,0.00,,,0.00,947.000000,,2013-10-05 20:11:00,
2013-10-05 13:42:00,60.0,11.0,-100.00,North,1,13.0,21.0,14,0.00,,,0.00,978.000000,,2013-10-05 20:42:00,
2013-10-05 13:52:00,60.0,11.0,-100.00,North,1,13.0,21.0,14,0.00,,,0.00,978.000000,,2013-10-05 20:52:00,
2013-10-05 14:01:00,60.0,11.0,-100.00,North,1,13.0,21.0,14,0.00,,,0.00,978.000000,,2013-10-05 21:01:00,
2013-10-05 14:12:00,60.0,11.0,-100.00,North,1,13.0,21.0,14,0.00,,,0.00,978.000000,,2013-10-05 21:12:00,
2013-10-05 14:44:00,62.0,9.0,-100.00,North,0,13.0,20.0,12,0.00,,,0.00,938.000000,,2013-10-05 21:44:00,
2013-10-05 14:54:00,62.0,9.0,-100.00,North,0,13.0,20.0,12,0.00,,,0.00,938.000000,,2013-10-05 21:54:00,
2013-10-05 15:04:00,62.0,9.0,-100.00,North,0,13.0,20.0,12,0.00,,,0.00,938.000000,,2013-10-05 22:04:00,
2013-10-05 15:12:00,62.0,9.0,-100.00,North,0,13.0,20.0,12,0.00,,,0.00,938.000000,,2013-10-05 22:12:00,
2013-10-05 15:42:00,64.0,8.0,-100.00,North,0,12.0,21.0,11,0.00,,,0.00,825.000000,,2013-10-05 22:42:00,
2013-10-05 15:53:00,64.0,8.0,-100.00,North,0,12.0,21.0,11,0.00,,,0.00,825.000000,,2013-10-05 22:53:00,
2013-10-05 16:02:00,64.0,8.0,-100.00,North,0,12.0,21.0,11,0.00,,,0.00,825.000000,,2013-10-05 23:02:00,
2013-10-05 16:13:00,64.0,8.0,-100.00,North,0,12.0,21.0,11,0.00,,,0.00,825.000000,,2013-10-05 23:13:00,
2013-10-05 16:43:00,63.0,8.0,-100.00,North,0,12.0,20.0,11,0.00,,,0.00,651.000000,,2013-10-05 23:43:00,
2013-10-05 16:53:00,63.0,8.0,-100.00,North,0,12.0,20.0,11,0.00,,,0.00,651.000000,,2013-10-05 23:53:00,
2013-10-05 17:02:00,63.0,8.0,-100.00,North,0,12.0,20.0,11,0.00,,,0.00,651.000000,,2013-10-06 00:02:00,
2013-10-05 17:12:00,63.0,8.0,-100.00,North,0,12.0,20.0,11,0.00,,,0.00,651.000000,,2013-10-06 00:12:00,
2013-10-05 17:43:00,59.0,6.0,-100.00,North,0,10.0,17.0,12,0.00,,,0.00,430.000000,,2013-10-06 00:43:00,
2013-10-05 17:52:00,59.0,6.0,-100.00,North,0,10.0,17.0,12,0.00,,,0.00,430.000000,,2013-10-06 00:52:00,
2013-10-05 18:02:00,59.0,6.0,-100.00,North,0,10.0,17.0,12,0.00,,,0.00,430.000000,,2013-10-06 01:02:00,
2013-10-05 18:11:00,59.0,6.0,-100.00,North,0,10.0,17.0,12,0.00,,,0.00,430.000000,,2013-10-06 01:11:00,
2013-10-05 18:42:00,53.0,4.0,-100.00,North,1,11.0,17.0,13,0.00,,,0.00,159.000000,,2013-10-06 01:42:00,
2013-10-05 18:52:00,53.0,4.0,-100.00,North,1,11.0,17.0,13,0.00,,,0.00,159.000000,,2013-10-06 01:52:00,
2013-10-05 19:02:00,53.0,4.0,-100.00,North,1,11.0,17.0,13,0.00,,,0.00,159.000000,,2013-10-06 02:02:00,
2013-10-05 19:11:00,53.0,4.0,-100.00,North,1,11.0,17.0,13,0.00,,,0.00,159.000000,,2013-10-06 02:11:00,
2013-10-05 19:42:00,51.0,4.0,-100.00,North,1,16.0,22.0,14,0.00,,,0.00,6.000000,,2013-10-06 02:42:00,
2013-10-05 19:52:00,51.0,4.0,-100.00,North,1,16.0,22.0,14,0.00,,,0.00,6.000000,,2013-10-06 02:52:00,
2013-10-05 20:02:00,51.0,4.0,-100.00,North,1,16.0,22.0,14,0.00,,,0.00,6.000000,,2013-10-06 03:02:00,
2013-10-05 20:12:00,51.0,4.0,-100.00,North,1,16.0,22.0,14,0.00,,,0.00,6.000000,,2013-10-06 03:12:00,
2013-10-05 20:45:00,51.0,2.0,-100.00,North,1,17.0,22.0,13,0.00,,,0.00,3.000000,,2013-10-06 03:45:00,
2013-10-05 20:54:00,51.0,2.0,-100.00,North,1,17.0,22.0,13,0.00,,,0.00,3.000000,,2013-10-06 03:54:00,
2013-10-05 21:13:00,51.0,2.0,-100.00,North,1,17.0,22.0,13,0.00,,,0.00,3.000000,,2013-10-06 04:13:00,
2013-10-05 21:44:00,53.0,-4.0,-100.00,North,1,18.0,25.0,9,0.00,,,0.00,3.000000,,2013-10-06 04:44:00,
2013-10-05 21:54:00,53.0,-4.0,-100.00,North,1,18.0,25.0,9,0.00,,,0.00,3.000000,,2013-10-06 04:54:00,
2013-10-05 22:03:00,53.0,-4.0,-100.00,North,1,18.0,25.0,9,0.00,,,0.00,3.000000,,2013-10-06 05:03:00,
2013-10-05 22:13:00,53.0,-4.0,-100.00,North,1,18.0,25.0,9,0.00,,,0.00,3.000000,,2013-10-06 05:13:00,
2013-10-05 22:43:00,52.0,-3.0,-100.00,North,1,18.0,26.0,10,0.00,,,0.00,3.000000,,2013-10-06 05:43:00,
2013-10-05 22:52:00,52.0,-3.0,-100.00,North,1,18.0,26.0,10,0.00,,,0.00,3.000000,,2013-10-06 05:52:00,
2013-10-05 23:02:00,52.0,-3.0,-100.00,North,1,18.0,26.0,10,0.00,,,0.00,3.000000,,2013-10-06 06:02:00,
2013-10-05 23:12:00,52.0,-3.0,-100.00,North,1,18.0,26.0,10,0.00,,,0.00,3.000000,,2013-10-06 06:12:00,
2013-10-05 23:42:00,51.0,-4.0,-100.00,North,1,16.0,25.0,10,0.00,,,0.00,3.000000,,2013-10-06 06:42:00,
2013-10-05 23:52:00,51.0,-4.0,-100.00,North,1,16.0,25.0,10,0.00,,,0.00,3.000000,,2013-10-06 06:52:00,